Showing default

TELSTAR 11N, 34111

Orbit data source: Space-Track

TELSTAR 11N, 34111 is a payload satellite owned by Telesat/Skynet (CA) in GEO that was launched on Thu, 26 Feb 2009 UTC via a ZENIT-3SLB launch vehicle from the Tyuratam Missile And Space Complex (TTMTR). Payload-class satellites include a variety of spacecraft equipped with specific instruments for various scientific and technological missions. These include communications satellites like Starlink; space stations such as the ISS; scientific satellites like the Hubble; Earth observation satellites from companies like Planet Labs, Umbra, and HawkEye 360; GPS; miniature CubeSats for education and research; and military/defense satellites.

Not visible in the next 10 days
Identifier
34111, 2009-009A
Orbit
GEO
Last TLE update
7 hours ago
Origin
Manufacturer
SS/Loral
Mission
Operational Commercial Communications
Bus & Motor
FS-1300, R-4D-11-164
Mass
4,010 kg wet, ~2,000 kg dry
Launch date (UTC)
2009-02-26 (16 years ago)
Launch vehicle
ZENIT-3SLB
Launch site
Tyuratam Missile And Space Complex (TTMTR)
Object type
Payload
Rocket body
Debris
Shape & HBR
Box + 2 Pan, 31 m
Radar Cross Section
40.765 m², Large (>1 m²)

Expand to show TLE details & history

TLE from 7 hours ago
0 TELSTAR 11N
1 34111U 09009A   25182.09836481 -.00000249  00000-0  00000+0 0  9990
2 34111   0.0211  30.9288 0002605  56.6749 189.6668  1.00268531 59897
Epoch: 2025-07-01T02:21Z
TLE epoch observation values (Epoch: 2025-07-01T02:21:38.719Z)
Latitude
-0.03782°
Longitude
-37.53104°
Altitude
35,797.874 km
Speed
3.074 km/s
True Right ascension
18h 29m 06s
True Declination
0° 02' 16"
Sunlit
Object was in daylight at epoch
Visualization orbit readout
Latitude
0.00176°
Longitude
74.99297°
Altitude
35,781.164 km
Speed
3.075 km/s
Apparent Right ascension
02h 24m 51s
Apparent Declination
-5° 43' 55"
Sunlit
Object is in daylight
Visualization observer readout
Local Sidereal Time
21:28:57
Azimuth
104.81° ESE
Elevation
8.43°
Doppler factor
1
Orbital elements
Apogee altitude
35,799.562 km
Perigee altitude
35,777.593 km
Semi-major axis
42,166.715 km
Eccentricity
0.00026
Inclination
0.0211°
RAAN
30.9288°
Arg. of periapsis
56.6749°
True anomaly
Unknown
Mean anomaly
189.6668°
Eccentric anomaly
Unknown
Mean motion
0.25066 °/min
Orbital period
1,436.2 mins
BSTAR
0
Loading historical data...
34111 neighbors
Loading maneuver chart data...
Loading SW <> Apogee altitude chart data...
Loading historical data...
Loading historical data...
Loading historical data...
Loading historical data...
Loading historical data...
Loading historical data...
Loading historical data...
Other satellites on launch #9 in the year 2009 (2009-02-26 UTC)

TELSTAR 11N Visibility

Observer location: undefined°, undefined°

TELSTAR 11N is likely not visible in the next few days
Span
Click to sort rows by Start time (UTC) header in descending order
Start Az.
Max El. time (UTC)
Max El. Az.
Max El.
End time (UTC)
End Az.
|